Weather reports worldwide

Advertisment
Mühldorf, Germany (10875): temperature & dewpoint: 10.07.2018 18:00:00 - 16.07.2018 18:00:00 (CEST)Mühldorf, Germany (10875): temperature 5cm & temperature -5cm: 10.07.2018 18:00:00 - 16.07.2018 18:00:00 (CEST)Mühldorf, Germany (10875): temperature -20cm & temperature -100cm: 10.07.2018 18:00:00 - 16.07.2018 18:00:00 (CEST)Mühldorf, Germany (10875): wind speed & gusts: 10.07.2018 18:00:00 - 16.07.2018 18:00:00 (CEST)Mühldorf, Germany (10875): wind direction: 10.07.2018 18:00:00 - 16.07.2018 18:00:00 (CEST)Mühldorf, Germany (10875): reduced air pressure: 10.07.2018 18:00:00 - 16.07.2018 18:00:00 (CEST)Mühldorf, Germany (10875): visibility: 10.07.2018 18:00:00 - 16.07.2018 18:00:00 (CEST)Mühldorf, Germany (10875): sunshine duration: 10.07.2018 18:00:00 - 16.07.2018 18:00:00 (CEST)Mühldorf, Germany (10875): precipitation: 10.07.2018 18:00:00 - 16.07.2018 18:00:00 (CEST)
Date & Time tt [°C] td [°C] tt 5cm [°C] tt -5cm [°C] tt -20cm [°C] tt -100cm [°C] ff [km/h] ff [kn] fx [km/h] fx [kn] dd ppp [hPa] vv [km] sd [min] rr [mm]
16.07.2018 18:00:00 23,7 11,7 25,3 25,9 21,9 17,9 8 5 15 8 N 1010,8 33 12 0,0
16.07.2018 17:00:00 23,8 10,5 26,4 26,5 21,6 17,9 7 4 13 7 N 1011,0 28 33 0,0
16.07.2018 16:00:00 23,8 13,4 27,6 27,6 21,3 17,9 4 2 13 7 ENE 1010,9 32 44 0,0
16.07.2018 15:00:00 23,5 14,1 27,2 26,8 21,0 17,8 7 4 14 8 SE 1011,7 16 44 0,0
16.07.2018 14:00:00 21,4 11,2 24,4 26,2 20,9 17,8 6 4 13 7 WSW 1013,1 18 55 0,0
16.07.2018 13:00:00 21,1 14,4 27,1 23,4 20,8 17,8 6 3 10 5 NNE 1013,8 20 42 0,0
16.07.2018 12:00:00 19,5 14,6 24,5 20,7 20,8 17,8 3 2 14 7 NW 1014,3 17 16 0,0
16.07.2018 11:00:00 17,2 14,9 17,5 18,9 20,9 17,8 2 1 15 8 WSW 1015,1 16 0 0,3
16.07.2018 10:00:00 16,5 14,7 16,6 18,4 21,0 17,8 5 3 11 6 SW 1015,4 11 0 0,3
16.07.2018 09:00:00 15,8 14,1 15,7 17,8 21,2 17,8 5 3 8 4 WSW 1015,6 5 3 0,2
16.07.2018 08:00:00 14,7 13,6 14,9 16,8 21,4 17,8 2 1 6 3 NNW 1015,5 6 6 0,0
16.07.2018 07:00:00 12,8 12,7 13,4 15,8 21,7 17,8 3 1 4 2 NW 1015,8 3,7 0 0,0
16.07.2018 06:00:00 11,8 11,6 10,9 15,9 21,9 17,8 3 1 5 3 ENE 1015,9 2,1 0 0,0
16.07.2018 05:00:00 12,2 12,2 11,2 16,3 22,2 17,8 0 0 5 3 N 1015,9 0,6 0 0,0
16.07.2018 04:00:00 12,3 12,0 11,6 16,8 22,5 17,8 0 0 4 2 N 1016,2 0,2 0 0,0
16.07.2018 03:00:00 12,7 12,1 11,7 17,3 22,7 17,8 2 1 4 2 NNE 1016,4 2,8 0 0,0
16.07.2018 02:00:00 13,7 13,2 13,2 17,7 23,0 17,8 0 0 9 5 N 1016,5 6 0 0,0
16.07.2018 01:00:00 14,1 13,5 13,2 18,1 23,3 17,8 4 2 6 4 E 1016,1 9 0 0,0
16.07.2018 00:00:00 14,6 14,1 13,5 18,7 23,6 17,8 5 3 6 4 NNW 1015,5 13 0 0,0
15.07.2018 23:00:00 13,8 13,1 12,8 19,7 23,8 17,8 4 2 6 3 WNW 1015,9 4,8 0 0,0
15.07.2018 22:00:00 14,6 13,9 13,7 20,8 24,0 17,8 3 2 10 6 N 1016,2 8 0 0,0
15.07.2018 21:00:00 16,8 14,5 16,5 22,1 24,2 17,8 5 3 11 6 W 1015,5 18 10 0,0
15.07.2018 20:00:00 17,2 14,3 17,3 22,9 24,3 17,8 9 5 28 15 SE 1014,9 24 24 1,4
15.07.2018 19:00:00 16,3 15,3 16,5 24,1 24,2 17,8 6 3 32 17 NE 1016,6 2,5 0 3,4
15.07.2018 18:00:00 17,0 14,0 16,2 27,8 23,9 17,8 16 9 40 22 NW 1016,2 13 0 3,0
15.07.2018 17:00:00 20,8 10,5 22,4 32,1 23,4 17,8 27 15 41 22 N 1014,1 27 17 0,0
15.07.2018 16:00:00 26,2 10,0 28,0 33,3 22,9 17,8 5 3 18 10 SSE 1012,8 31 23 0,0
15.07.2018 15:00:00 27,9 10,4 34,6 34,1 22,5 17,8 10 6 21 11 ENE 1012,9 41 59 0,0
15.07.2018 14:00:00 27,3 10,5 33,5 32,0 22,1 17,8 6 3 14 8 W 1013,4 22 51 0,0
15.07.2018 13:00:00 25,6 11,0 34,7 30,6 21,8 17,8 6 3 14 8 NNW 1014,3 17 60 0,0
15.07.2018 12:00:00 25,3 12,4 30,0 28,6 21,6 17,8 6 4 16 9 WSW 1015,1 34 60 0,0
15.07.2018 11:00:00 24,0 11,7 28,1 26,4 21,5 17,8 8 4 13 7 SSE 1015,6 15 60 0,0
15.07.2018 10:00:00 22,2 13,7 27,2 24,1 21,5 17,8 6 4 10 5 SW 1016,0 15 60 0,0
15.07.2018 09:00:00 19,3 12,8 23,4 21,4 21,7 17,8 4 2 7 4 W 1016,6 14 60 0,0
15.07.2018 08:00:00 16,5 12,3 18,9 19,0 21,9 17,8 3 1 5 3 SE 1016,7 11 53 0,0
15.07.2018 07:00:00 13,1 12,8 13,5 17,3 22,1 17,8 4 2 6 3 SW 1017,2 3,9 0 0,0
15.07.2018 06:00:00 11,4 11,0 11,5 17,1 22,4 17,8 4 2 5 3 NW 1017,6 4,9 0 0,0
15.07.2018 05:00:00 11,1 11,1 9,6 17,4 22,7 17,8 3 2 5 3 ENE 1017,5 0,3 0 0,0
15.07.2018 04:00:00 10,9 10,7 9,9 17,9 22,9 17,8 2 1 4 2 WSW 1017,7 0,1 0 0,0
15.07.2018 03:00:00 11,1 10,4 9,7 18,6 23,2 17,8 3 2 5 3 NW 1017,9 9 0 0,0
15.07.2018 02:00:00 11,8 10,9 10,1 19,4 23,4 17,8 0 0 6 3 N 1017,8 9 0 0,0
15.07.2018 01:00:00 13,3 13,2 10,6 20,4 23,6 17,8 3 2 5 3 NE 1017,8 10 0 0,0
15.07.2018 00:00:00 13,6 12,3 11,6 21,5 23,8 17,8 4 2 5 3 W 1017,9 8 0 0,0
14.07.2018 23:00:00 14,6 13,0 11,6 22,9 23,8 17,8 0 0 3 2 N 1017,5 13 0 0,0
14.07.2018 22:00:00 16,8 14,2 14,3 24,7 23,8 17,8 2 1 7 4 N 1017,0 20 0 0,0
14.07.2018 21:00:00 20,5 15,8 18,8 26,7 23,7 17,8 0 0 6 3 N 1015,9 24 25 0,0
14.07.2018 20:00:00 22,5 13,7 22,0 28,2 23,6 17,8 4 2 13 7 S 1015,7 37 28 0,0
14.07.2018 19:00:00 23,9 13,8 24,6 29,3 23,4 17,8 6 3 12 6 WSW 1015,6 37 24 0,0
14.07.2018 18:00:00 25,2 10,0 27,9 29,9 23,2 17,8 6 4 22 12 ESE 1015,7 37 59 0,0
14.07.2018 17:00:00 24,2 12,1 28,0 29,1 22,9 17,8 15 8 24 13 E 1016,3 28 45 0,0
14.07.2018 16:00:00 21,8 15,0 25,7 28,3 22,5 17,8 5 3 44 24 W 1017,6 29 2 0,0
14.07.2018 15:00:00 25,5 12,3 26,9 31,9 22,1 17,8 11 6 25 13 NE 1015,9 25 28 0,0
14.07.2018 14:00:00 26,6 12,7 32,9 32,2 21,7 17,8 16 9 25 14 NE 1016,1 14 44 0,0
14.07.2018 13:00:00 26,8 9,5 33,4 30,6 21,4 17,8 9 5 19 11 W 1016,6 22 50 0,0
14.07.2018 12:00:00 25,7 9,8 30,0 28,6 21,2 17,8 4 2 12 6 W 1017,4 23 51 0,0
14.07.2018 11:00:00 24,0 11,1 29,5 26,4 21,1 17,8 7 4 11 6 NNW 1017,9 19 57 0,0
14.07.2018 10:00:00 22,4 12,0 27,2 23,8 21,2 17,8 4 2 10 5 WNW 1018,3 24 52 0,0
14.07.2018 09:00:00 20,3 11,5 23,4 21,2 21,4 17,8 3 2 7 4 S 1018,5 26 60 0,0
14.07.2018 08:00:00 17,0 11,5 18,5 18,8 21,6 17,8 3 2 5 3 SSE 1019,2 11 60 0,0
14.07.2018 07:00:00 13,1 10,6 14,3 17,2 21,8 17,8 3 1 4 2 NW 1019,6 10 51 0,0
14.07.2018 06:00:00 10,7 10,0 9,5 16,9 22,1 17,8 3 1 5 3 N 1020,0 8 0 0,0
14.07.2018 05:00:00 11,2 10,9 8,9 17,5 22,4 17,8 0 0 3 2 N 1019,8 12 0 0,0
14.07.2018 04:00:00 11,4 10,8 9,6 18,2 22,6 17,8 2 1 5 3 N 1019,6 9 0 0,0
14.07.2018 03:00:00 12,3 11,2 10,8 19,0 22,8 17,8 2 1 5 3 E 1019,5 15 0 0,0
14.07.2018 02:00:00 12,6 11,2 10,7 19,8 23,1 17,8 4 2 9 5 WNW 1019,7 15 0 0,0
14.07.2018 01:00:00 13,3 11,9 11,8 20,9 23,2 17,8 5 3 6 4 W 1019,6 15 0 0,0
14.07.2018 00:00:00 14,4 12,4 13,2 22,0 23,4 17,8 2 1 6 3 N 1019,4 20 0 0,0
13.07.2018 23:00:00 15,3 13,1 13,2 23,4 23,4 17,8 4 2 5 3 NW 1019,0 20 0 0,0
13.07.2018 22:00:00 17,4 13,6 15,0 25,3 23,3 17,8 3 1 4 2 WNW 1018,3 28 0 0,0
13.07.2018 21:00:00 21,0 13,4 18,2 27,8 23,2 17,8 4 2 9 5 N 1017,1 27 39 0,0
13.07.2018 20:00:00 24,7 11,2 25,4 29,9 22,9 17,8 6 3 14 8 NW 1016,3 30 60 0,0
13.07.2018 19:00:00 26,1 10,0 28,8 31,3 22,5 17,8 7 4 18 10 NNW 1016,3 32 60 0,0
13.07.2018 18:00:00 26,3 9,2 28,0 32,4 22,1 17,8 11 6 20 11 W 1016,5 33 60 0,0
13.07.2018 17:00:00 26,6 10,2 30,5 32,6 21,6 17,8 5 3 20 11 NW 1016,6 39 54 0,0
13.07.2018 16:00:00 25,8 9,1 32,9 32,3 21,0 17,8 6 3 24 13 NNW 1017,1 36 52 0,0
13.07.2018 15:00:00 25,9 11,6 32,2 31,9 20,6 17,8 16 9 32 17 NW 1017,2 28 51 0,0
13.07.2018 14:00:00 25,7 9,0 32,4 30,2 20,1 17,8 9 5 19 10 NW 1017,6 23 51 0,0
13.07.2018 13:00:00 25,0 10,2 31,9 28,5 19,8 17,8 7 4 25 13 WNW 1018,0 19 48 0,0
13.07.2018 12:00:00 24,4 9,4 31,3 26,7 19,6 17,8 5 3 23 12 NNW 1018,3 14 60 0,0
13.07.2018 11:00:00 23,1 9,0 27,0 24,3 19,5 17,8 10 5 19 10 W 1018,6 18 60 0,0
13.07.2018 10:00:00 21,7 10,6 25,4 21,8 19,5 17,8 9 5 14 7 W 1018,8 30 60 0,0
13.07.2018 09:00:00 18,5 11,0 21,4 19,0 19,7 17,8 8 4 11 6 W 1019,4 14 60 0,0
13.07.2018 08:00:00 14,7 9,1 16,9 16,4 19,9 17,8 4 2 9 5 N 1019,9 20 60 0,0
13.07.2018 07:00:00 11,0 8,7 11,8 14,4 20,1 17,8 4 2 8 4 WNW 1020,4 11 53 0,0
13.07.2018 06:00:00 8,1 7,7 6,9 14,0 20,4 17,8 3 1 6 3 WNW 1020,8 7 0 0,0
13.07.2018 05:00:00 8,8 8,8 7,3 14,5 20,6 17,8 3 1 4 2 WNW 1020,1 4,5 0 0,0
13.07.2018 04:00:00 8,8 7,8 6,5 15,1 20,9 17,8 0 0 4 2 N 1020,0 12 0 0,0
13.07.2018 03:00:00 9,1 8,2 7,2 15,9 21,1 17,8 3 2 5 3 W 1020,1 15 0 0,0
13.07.2018 02:00:00 10,1 9,5 7,5 16,7 21,3 17,8 4 2 4 2 NW 1019,9 18 0 0,0
13.07.2018 01:00:00 10,5 9,5 8,9 17,6 21,5 17,8 3 2 5 3 NW 1019,8 15 0 0,0
13.07.2018 00:00:00 11,7 10,9 9,1 18,7 21,6 17,8 2 1 4 2 WNW 1019,4 18 0 0,0
12.07.2018 23:00:00 12,8 11,2 10,8 20,1 21,6 17,8 3 2 5 3 WNW 1018,8 15 0 0,0
12.07.2018 22:00:00 14,6 11,7 11,6 21,9 21,5 17,8 3 2 4 2 WNW 1018,3 24 0 0,0
12.07.2018 21:00:00 18,7 11,3 15,5 24,3 21,4 17,8 0 0 12 6 N 1017,0 34 42 0,0
12.07.2018 20:00:00 21,5 9,6 21,6 26,0 21,1 17,8 9 5 19 10 WNW 1016,3 40 60 0,0
12.07.2018 19:00:00 22,4 9,4 24,2 27,3 20,8 17,8 13 7 23 12 NW 1015,8 42 60 0,0
12.07.2018 18:00:00 22,5 8,8 24,8 28,0 20,5 17,8 16 9 29 16 NW 1015,7 19 57 0,0
12.07.2018 17:00:00 22,2 9,3 27,3 27,8 20,2 17,8 14 7 29 16 NNW 1015,9 16 55 0,0
12.07.2018 16:00:00 21,8 10,6 26,4 26,8 19,8 17,8 16 9 29 16 NW 1016,1 24 39 0,0
12.07.2018 15:00:00 21,1 11,0 23,1 26,1 19,5 17,8 23 12 35 19 W 1016,2 18 25 0,0
12.07.2018 14:00:00 20,4 10,5 23,3 24,6 19,2 17,8 13 7 31 17 NW 1016,3 20 9 0,0
12.07.2018 13:00:00 20,2 10,5 22,6 24,6 19,0 17,8 16 8 26 14 WNW 1016,5 25 27 0,0
12.07.2018 12:00:00 19,7 10,1 23,4 22,6 18,9 17,8 14 7 23 13 NW 1016,5 24 21 0,0
12.07.2018 11:00:00 18,7 9,0 23,1 19,9 18,9 17,8 13 7 22 12 WNW 1016,7 17 19 0,0
12.07.2018 10:00:00 17,1 9,6 20,4 18,0 19,0 17,8 4 2 11 6 W 1017,1 19 4 0,0
12.07.2018 09:00:00 14,8 9,9 17,7 16,0 19,1 17,8 4 2 8 4 NNW 1017,5 13 22 0,0
12.07.2018 08:00:00 12,1 8,9 12,9 14,0 19,3 17,8 4 2 5 3 N 1018,0 11 8 0,0
12.07.2018 07:00:00 10,0 9,5 10,2 13,1 19,5 17,8 2 1 3 2 NNE 1017,9 7 0 0,0
12.07.2018 06:00:00 8,6 8,5 8,4 12,6 19,8 17,8 0 0 3 2 N 1017,8 4,7 0 0,0
12.07.2018 05:00:00 7,6 7,2 6,2 12,7 20,0 17,8 3 2 6 4 N 1018,1 5 0 0,0
12.07.2018 04:00:00 7,4 6,6 5,8 13,2 20,3 17,8 3 2 5 3 NNW 1018,5 9 0 0,0
12.07.2018 03:00:00 8,4 8,4 6,3 13,8 20,5 17,8 4 2 5 3 W 1018,3 6 0 0,0
12.07.2018 02:00:00 9,1 9,1 7,2 14,5 20,8 17,8 3 2 5 3 W 1018,4 4,5 0 0,0
12.07.2018 01:00:00 9,2 8,3 6,9 15,3 21,0 17,8 3 2 6 3 NNW 1018,4 6 0 0,0
12.07.2018 00:00:00 10,1 9,4 8,1 16,2 21,1 17,8 4 2 5 3 WNW 1018,3 12 0 0,0
11.07.2018 23:00:00 11,1 9,8 8,9 17,4 21,2 17,7 4 2 5 3 WNW 1017,9 12 0 0,0
11.07.2018 22:00:00 12,9 10,4 10,2 18,9 21,2 17,7 3 1 5 3 WNW 1017,3 20 0 0,0
11.07.2018 21:00:00 14,9 10,8 12,9 20,3 21,2 17,7 4 2 10 6 NW 1016,5 19 0 0,0
11.07.2018 20:00:00 17,6 9,4 17,2 21,5 21,2 17,7 10 5 17 9 WNW 1015,8 25 10 0,0
11.07.2018 19:00:00 18,1 9,1 18,6 22,4 21,1 17,7 11 6 23 12 WNW 1015,4 28 19 0,0
11.07.2018 18:00:00 18,4 8,3 18,9 23,0 20,9 17,7 14 7 30 16 NW 1014,8 32 17 0,0
11.07.2018 17:00:00 19,4 8,9 21,0 23,2 20,8 17,7 19 11 31 17 WNW 1014,4 20 21 0,0
11.07.2018 16:00:00 19,7 10,2 23,1 22,5 20,7 17,7 15 8 36 19 WNW 1014,4 29 32 0,0
11.07.2018 15:00:00 17,6 9,7 19,6 21,3 20,6 17,7 14 8 27 15 NW 1014,9 27 9 0,0
11.07.2018 14:00:00 18,2 9,0 18,7 21,8 20,5 17,7 18 10 29 16 WNW 1014,5 24 4 0,0
11.07.2018 13:00:00 18,4 8,8 20,1 22,4 20,5 17,7 14 8 25 14 W 1014,6 31 25 0,0
11.07.2018 12:00:00 18,7 9,6 21,4 21,3 20,5 17,7 13 7 28 15 W 1014,9 22 46 0,0
11.07.2018 11:00:00 17,3 10,3 20,1 19,2 20,5 17,7 14 8 24 13 WNW 1015,1 22 6 0,0
11.07.2018 10:00:00 16,4 11,4 17,3 18,3 20,6 17,7 13 7 23 12 WNW 1015,1 20 1 0,0
11.07.2018 09:00:00 16,1 13,7 16,7 18,4 20,7 17,7 11 6 16 9 W 1014,8 11 0 0,0
11.07.2018 08:00:00 15,3 13,2 15,9 17,8 20,9 17,7 5 3 10 5 S 1014,7 7 12 0,0
11.07.2018 07:00:00 14,4 13,7 14,6 17,0 21,1 17,7 4 2 6 3 ESE 1014,6 4,4 3 0,0
11.07.2018 06:00:00 13,5 13,2 13,1 16,9 21,2 17,7 3 2 8 4 NNE 1014,8 1,9 0 0,0
11.07.2018 05:00:00 13,7 13,5 13,7 17,3 21,4 17,7 3 1 6 3 WNW 1014,7 2,9 0 0,0
11.07.2018 04:00:00 13,8 13,2 13,7 17,6 21,6 17,7 3 1 8 4 NNE 1015,0 3,3 0 0,0
11.07.2018 03:00:00 14,3 13,6 14,2 18,0 21,8 17,7 6 3 9 5 SSE 1014,9 4,7 0 0,9
11.07.2018 02:00:00 14,6 13,9 14,6 18,3 22,0 17,7 3 2 9 5 NNW 1015,3 2,6 0 0,8
11.07.2018 01:00:00 14,6 14,0 14,6 18,7 22,1 17,7 3 2 6 4 SE 1015,3 4,2 0 0,0
11.07.2018 00:00:00 14,6 14,0 14,7 19,1 22,3 17,7 4 2 5 3 E 1016,0 6 0 0,0
10.07.2018 23:00:00 14,7 13,9 14,6 19,6 22,4 17,7 0 0 5 3 N 1016,2 7 0 0,0
10.07.2018 22:00:00 14,9 13,8 14,8 20,4 22,5 17,7 4 2 7 4 SSE 1016,1 9 0 0,8
10.07.2018 21:00:00 15,4 14,2 15,2 21,4 22,5 17,7 4 2 10 5 S 1015,9 4,3 0 0,6
10.07.2018 20:00:00 15,9 13,2 16,0 22,6 22,5 17,7 5 3 13 7 WSW 1015,2 20 5 0,0
10.07.2018 19:00:00 16,0 12,4 16,7 24,1 22,3 17,7 12 6 44 24 N 1014,4 24 2 0,8
10.07.2018 18:00:00 18,5 12,7 20,0 27,5 22,0 17,7 19 10 36 20 NNE 1013,5 50 41 0,0

tt = temperature
td = dewpoint
tt 5cm = temperature 5cm
tt -5cm = temperature -5cm
tt -20cm = temperature -20cm
tt -100cm = temperature -100cm
ff = wind speed
fx = gusts
dd = wind direction
ppp = reduced air pressure
vv = visibility
sd = sunshine duration
rr = precipitation

Next stations